QPF
0.00 0.00 0.00 0.00 0.00 0.00 0.00 0.00 0.01 0.01 0.01 0.00 0.00 0.01 0.01 0.01 0.01 0.01 0.01 0.00 0.00 0.00 0.01 0.01 0.02 0.05 0.07 0.05 0.03 0.04 0.04 0.02 0.01 0.02 0.02 0.03 0.03 0.03 0.03 0.03 0.02 0.02 0.02 0.02
0.00 0.00 0.00 0.00 0.00 0.00 0.00 0.00 0.00 0.01 0.01 0.01 0.01 0.01 0.01 0.02 0.01 0.01 0.01 0.01 0.01 0.01 0.02 0.02 0.02 0.03 0.05 0.06 0.05 0.04 0.03 0.03 0.03 0.03 0.03 0.03 0.03 0.02 0.02 0.02 0.02 0.02 0.02 0.02
0.00 0.00 0.00 0.00 0.00 0.00 0.00 0.00 0.00 0.00 0.01 0.01 0.01 0.02 0.01 0.01 0.01 0.01 0.02 0.02 0.02 0.02 0.02 0.02 0.02 0.03 0.04 0.04 0.05 0.05 0.04 0.04 0.03 0.03 0.02 0.02 0.02 0.02 0.02 0.01 0.01 0.01 0.01 0.02
0.00 0.00 0.00 0.00 0.00 0.00 0.00 0.00 0.00 0.00 0.00 0.01 0.02 0.02 0.01 0.02 0.01 0.02 0.03 0.03 0.02 0.02 0.02 0.02 0.02 0.02 0.03 0.04 0.07 0.08 0.05 0.03 0.02 0.02 0.01 0.01 0.01 0.00 0.01 0.01 0.01 0.01 0.02 0.02
0.00 0.00 0.00 0.00 0.00 0.00 0.00 0.00 0.00 0.01 0.01 0.01 0.01 0.01 0.01 0.03 0.03 0.03 0.02 0.02 0.01 0.01 0.02 0.02 0.01 0.01 0.02 0.03 0.04 0.05 0.05 0.04 0.03 0.02 0.02 0.01 0.01 0.01 0.01 0.01 0.01 0.02 0.02 0.02
0.00 0.00 0.00 0.00 0.00 0.00 0.00 0.00 0.01 0.01 0.01 0.01 0.01 0.01 0.02 0.02 0.03 0.03 0.02 0.01 0.01 0.01 0.01 0.01 0.02 0.02 0.02 0.02 0.01 0.02 0.02 0.02 0.01 0.01 0.01 0.01 0.01 0.01 0.01 0.01 0.01 0.02 0.02 0.02
0.00 0.00 0.00 0.00 0.00 0.00 0.01 0.01 0.01 0.01 0.01 0.01 0.01 0.01 0.01 0.01 0.02 0.02 0.02 0.01 0.01 0.01 0.01 0.01 0.01 0.02 0.02 0.01 0.01 0.01 0.01 0.01 0.01 0.01 0.01 0.01 0.02 0.01 0.01 0.01 0.02 0.02 0.01 0.01
0.00 0.00 0.00 0.00 0.00 0.01 0.01 0.01 0.01 0.01 0.01 0.01 0.01 0.01 0.00 0.00 0.01 0.01 0.00 0.00 0.00 0.00 0.01 0.01 0.01 0.02 0.03 0.02 0.02 0.02 0.01 0.01 0.01 0.01 0.01 0.01 0.02 0.02 0.02 0.02 0.01 0.01 0.01 0.01
0.00 0.00 0.00 0.00 0.00 0.00 0.01 0.01 0.01 0.01 0.01 0.00 0.00 0.01 0.00 0.00 0.01 0.00 0.00 0.00 0.00 0.00 0.01 0.01 0.02 0.03 0.03 0.03 0.02 0.01 0.01 0.01 0.01 0.01 0.01 0.01 0.02 0.03 0.02 0.01 0.01 0.01 0.01 0.01
0.01 0.01 0.00 0.01 0.00 0.00 0.01 0.01 0.01 0.00 0.00 0.00 0.00 0.00 0.00 0.00 0.00 0.00 0.00 0.00 0.00 0.00 0.01 0.01 0.02 0.03 0.02 0.02 0.02 0.01 0.01 0.01 0.01 0.01 0.01 0.02 0.02 0.02 0.02 0.02 0.02 0.02 0.02 0.02
0.00 0.00 0.00 0.01 0.01 0.01 0.01 0.01 0.01 0.01 0.01 0.01 0.01 0.01 0.00 0.00 0.00 0.00 0.00 0.00 0.01 0.01 0.02 0.02 0.02 0.02 0.01 0.02 0.02 0.02 0.02 0.02 0.02 0.02 0.03 0.03 0.03 0.03 0.04 0.04 0.05 0.04 0.05 0.05
0.01 0.00 0.01 0.01 0.01 0.01 0.01 0.01 0.01 0.02 0.02 0.02 0.01 0.02 0.03 0.01 0.01 0.01 0.01 0.01 0.02 0.02 0.03 0.04 0.03 0.02 0.02 0.03 0.03 0.03 0.03 0.03 0.03 0.02 0.02 0.02 0.02 0.03 0.04 0.05 0.04 0.04 0.04 0.04
0.01 0.01 0.01 0.00 0.00 0.00 0.00 0.01 0.01 0.02 0.04 0.05 0.04 0.03 0.06 0.07 0.04 0.03 0.02 0.03 0.04 0.03 0.03 0.03 0.03 0.02 0.03 0.05 0.05 0.04 0.04 0.04 0.03 0.03 0.02 0.01 0.01 0.02 0.03 0.03 0.02 0.02 0.02 0.02
0.00 0.01 0.01 0.01 0.01 0.01 0.01 0.01 0.01 0.01 0.02 0.04 0.05 0.04 0.05 0.08 0.09 0.06 0.06 0.05 0.04 0.04 0.04 0.03 0.04 0.04 0.05 0.05 0.05 0.06 0.08 0.07 0.05 0.04 0.03 0.02 0.02 0.02 0.02 0.03 0.02 0.02 0.02 0.03
0.00 0.00 0.01 0.01 0.01 0.01 0.01 0.01 0.02 0.01 0.01 0.01 0.02 0.02 0.03 0.04 0.05 0.05 0.05 0.05 0.05 0.05 0.05 0.04 0.03 0.03 0.04 0.05 0.06 0.07 0.09 0.10 0.09 0.07 0.05 0.03 0.03 0.03 0.04 0.04 0.04 0.02 0.03 0.03
0.01 0.00 0.01 0.01 0.01 0.01 0.01 0.01 0.02 0.02 0.01 0.01 0.01 0.02 0.03 0.03 0.04 0.04 0.04 0.04 0.03 0.03 0.04 0.05 0.05 0.04 0.03 0.04 0.05 0.06 0.08 0.10 0.11 0.10 0.09 0.07 0.04 0.04 0.04 0.05 0.05 0.05 0.04 0.04
0.01 0.01 0.01 0.01 0.01 0.01 0.01 0.01 0.01 0.01 0.02 0.02 0.02 0.02 0.02 0.03 0.04 0.04 0.04 0.03 0.03 0.02 0.02 0.03 0.04 0.05 0.04 0.04 0.04 0.05 0.06 0.07 0.08 0.07 0.07 0.08 0.07 0.05 0.05 0.06 0.06 0.06 0.07 0.08
0.01 0.02 0.02 0.02 0.01 0.01 0.01 0.01 0.01 0.02 0.01 0.01 0.02 0.02 0.03 0.03 0.03 0.03 0.04 0.03 0.03 0.03 0.03 0.03 0.04 0.04 0.04 0.04 0.05 0.05 0.05 0.05 0.05 0.04 0.04 0.05 0.06 0.06 0.05 0.05 0.04 0.04 0.05 0.06
0.02 0.03 0.02 0.01 0.01 0.00 0.00 0.01 0.01 0.01 0.01 0.02 0.03 0.03 0.03 0.03 0.03 0.03 0.03 0.03 0.03 0.03 0.02 0.03 0.03 0.03 0.03 0.04 0.05 0.06 0.06 0.06 0.06 0.05 0.05 0.05 0.05 0.05 0.04 0.03 0.03 0.03 0.03 0.03
0.01 0.02 0.02 0.01 0.01 0.01 0.02 0.03 0.02 0.01 0.01 0.01 0.02 0.02 0.03 0.02 0.02 0.02 0.03 0.04 0.03 0.03 0.03 0.03 0.04 0.04 0.04 0.05 0.06 0.09 0.10 0.07 0.07 0.06 0.06 0.06 0.05 0.04 0.03 0.03 0.02 0.02 0.02 0.02
0.01 0.01 0.02 0.03 0.03 0.05 0.04 0.04 0.02 0.01 0.01 0.02 0.01 0.02 0.02 0.02 0.02 0.02 0.03 0.03 0.03 0.02 0.03 0.04 0.04 0.04 0.05 0.05 0.07 0.09 0.11 0.09 0.06 0.05 0.04 0.03 0.04 0.04 0.03 0.02 0.02 0.01 0.01 0.02
0.02 0.02 0.02 0.05 0.06 0.06 0.03 0.02 0.02 0.01 0.01 0.01 0.01 0.01 0.01 0.01 0.01 0.01 0.02 0.03 0.03 0.02 0.03 0.04 0.05 0.04 0.04 0.04 0.06 0.08 0.08 0.07 0.05 0.04 0.03 0.03 0.03 0.03 0.02 0.02 0.01 0.01 0.02 0.02
0.03 0.03 0.03 0.04 0.03 0.04 0.03 0.01 0.01 0.01 0.01 0.01 0.01 0.01 0.01 0.01 0.00 0.00 0.01 0.01 0.03 0.03 0.03 0.04 0.06 0.05 0.05 0.04 0.04 0.06 0.07 0.06 0.05 0.03 0.03 0.04 0.04 0.03 0.02 0.01 0.01 0.01 0.02 0.02
0.02 0.02 0.02 0.02 0.03 0.04 0.04 0.02 0.02 0.01 0.01 0.01 0.01 0.01 0.01 0.01 0.00 0.00 0.00 0.01 0.02 0.02 0.02 0.02 0.04 0.06 0.06 0.04 0.04 0.06 0.08 0.07 0.05 0.03 0.03 0.03 0.04 0.04 0.03 0.02 0.02 0.02 0.02 0.02
0.03 0.02 0.01 0.02 0.02 0.04 0.04 0.03 0.02 0.02 0.01 0.01 0.01 0.01 0.02 0.01 0.01 0.01 0.01 0.01 0.01 0.02 0.02 0.02 0.02 0.03 0.03 0.04 0.04 0.05 0.06 0.06 0.06 0.04 0.03 0.03 0.03 0.03 0.02 0.01 0.02 0.02 0.03 0.03
0.03 0.02 0.02 0.01 0.02 0.02 0.03 0.03 0.03 0.02 0.02 0.01 0.03 0.03 0.02 0.03 0.02 0.02 0.01 0.01 0.01 0.02 0.02 0.02 0.01 0.01 0.01 0.01 0.02 0.03 0.03 0.05 0.05 0.04 0.03 0.03 0.03 0.04 0.02 0.01 0.01 0.02 0.04 0.04
0.04 0.03 0.02 0.01 0.01 0.02 0.02 0.02 0.03 0.03 0.03 0.03 0.04 0.03 0.03 0.03 0.03 0.03 0.03 0.02 0.02 0.02 0.02 0.01 0.01 0.01 0.01 0.01 0.01 0.01 0.03 0.04 0.04 0.03 0.03 0.03 0.04 0.04 0.02 0.01 0.01 0.03 0.04 0.05
MSLP
1011.97 1011.87 1011.83 1011.87 1011.97 1012.11 1012.23 1012.30 1012.28 1012.13 1011.85 1011.45 1010.95 1010.38 1009.79 1009.18 1008.60 1008.04 1007.52 1007.04 1006.61 1006.25 1005.98 1005.82 1005.80 1005.95 1006.26 1006.74 1007.36 1008.09 1008.88 1009.68 1010.46 1011.20 1011.89 1012.53 1013.14 1013.74 1014.35 1014.97 1015.62 1016.28 1016.92 1017.53
1012.31 1012.08 1011.84 1011.63 1011.47 1011.34 1011.25 1011.19 1011.12 1011.04 1010.93 1010.79 1010.60 1010.35 1010.04 1009.68 1009.25 1008.76 1008.22 1007.65 1007.08 1006.55 1006.12 1005.82 1005.69 1005.76 1006.04 1006.52 1007.16 1007.91 1008.73 1009.57 1010.38 1011.16 1011.88 1012.55 1013.20 1013.84 1014.49 1015.16 1015.84 1016.53 1017.19 1017.82
1012.69 1012.32 1011.91 1011.49 1011.09 1010.74 1010.45 1010.25 1010.14 1010.09 1010.11 1010.15 1010.20 1010.20 1010.13 1009.95 1009.65 1009.22 1008.67 1008.03 1007.36 1006.71 1006.15 1005.74 1005.54 1005.56 1005.82 1006.30 1006.96 1007.75 1008.60 1009.48 1010.33 1011.14 1011.89 1012.60 1013.28 1013.96 1014.64 1015.34 1016.04 1016.75 1017.43 1018.06
1013.07 1012.60 1012.05 1011.46 1010.87 1010.34 1009.90 1009.59 1009.41 1009.37 1009.45 1009.61 1009.80 1009.96 1010.05 1010.00 1009.78 1009.39 1008.84 1008.16 1007.42 1006.70 1006.07 1005.60 1005.35 1005.35 1005.61 1006.11 1006.79 1007.61 1008.49 1009.40 1010.29 1011.13 1011.92 1012.66 1013.37 1014.07 1014.77 1015.49 1016.20 1016.91 1017.59 1018.21
1013.43 1012.88 1012.24 1011.53 1010.83 1010.17 1009.62 1009.21 1008.97 1008.91 1009.00 1009.20 1009.46 1009.71 1009.86 1009.88 1009.71 1009.34 1008.79 1008.10 1007.33 1006.58 1005.92 1005.44 1005.18 1005.18 1005.44 1005.95 1006.66 1007.49 1008.41 1009.34 1010.25 1011.12 1011.93 1012.70 1013.43 1014.15 1014.87 1015.58 1016.29 1016.99 1017.65 1018.26
1013.70 1013.11 1012.42 1011.66 1010.89 1010.17 1009.56 1009.10 1008.81 1008.71 1008.78 1008.97 1009.23 1009.48 1009.65 1009.68 1009.52 1009.16 1008.62 1007.93 1007.18 1006.43 1005.79 1005.32 1005.07 1005.08 1005.36 1005.88 1006.59 1007.43 1008.35 1009.29 1010.21 1011.09 1011.92 1012.71 1013.46 1014.19 1014.90 1015.61 1016.31 1016.98 1017.62 1018.21
1013.82 1013.22 1012.52 1011.77 1011.00 1010.28 1009.66 1009.18 1008.87 1008.73 1008.76 1008.91 1009.13 1009.34 1009.48 1009.48 1009.31 1008.95 1008.43 1007.77 1007.05 1006.35 1005.74 1005.30 1005.08 1005.11 1005.39 1005.91 1006.60 1007.43 1008.33 1009.25 1010.17 1011.05 1011.88 1012.68 1013.43 1014.16 1014.88 1015.57 1016.25 1016.90 1017.51 1018.08
1013.73 1013.14 1012.47 1011.77 1011.06 1010.39 1009.81 1009.36 1009.05 1008.90 1008.89 1008.98 1009.14 1009.29 1009.37 1009.34 1009.15 1008.79 1008.29 1007.68 1007.01 1006.37 1005.82 1005.43 1005.24 1005.28 1005.56 1006.04 1006.70 1007.48 1008.34 1009.23 1010.12 1010.98 1011.81 1012.60 1013.36 1014.09 1014.80 1015.48 1016.14 1016.77 1017.36 1017.90
1013.39 1012.83 1012.22 1011.60 1010.98 1010.41 1009.92 1009.53 1009.25 1009.11 1009.08 1009.13 1009.22 1009.31 1009.33 1009.26 1009.06 1008.71 1008.25 1007.69 1007.10 1006.53 1006.04 1005.70 1005.54 1005.58 1005.83 1006.27 1006.87 1007.58 1008.38 1009.21 1010.06 1010.89 1011.71 1012.49 1013.24 1013.98 1014.68 1015.36 1016.01 1016.62 1017.19 1017.72
1012.79 1012.27 1011.74 1011.22 1010.73 1010.28 1009.90 1009.60 1009.39 1009.27 1009.24 1009.26 1009.31 1009.34 1009.32 1009.22 1009.02 1008.70 1008.28 1007.80 1007.28 1006.78 1006.37 1006.07 1005.92 1005.95 1006.16 1006.54 1007.06 1007.70 1008.42 1009.18 1009.98 1010.77 1011.57 1012.34 1013.10 1013.84 1014.55 1015.24 1015.88 1016.49 1017.05 1017.57
1011.97 1011.48 1011.04 1010.64 1010.28 1009.97 1009.72 1009.52 1009.39 1009.32 1009.29 1009.30 1009.32 1009.32 1009.28 1009.17 1008.98 1008.70 1008.34 1007.93 1007.50 1007.08 1006.72 1006.46 1006.33 1006.34 1006.50 1006.81 1007.24 1007.79 1008.43 1009.12 1009.86 1010.62 1011.39 1012.16 1012.93 1013.68 1014.41 1015.11 1015.77 1016.38 1016.95 1017.47
1010.98 1010.54 1010.18 1009.89 1009.67 1009.49 1009.36 1009.27 1009.21 1009.18 1009.18 1009.19 1009.20 1009.20 1009.15 1009.05 1008.88 1008.65 1008.36 1008.03 1007.68 1007.34 1007.04 1006.81 1006.68 1006.66 1006.77 1007.00 1007.36 1007.82 1008.37 1009.00 1009.68 1010.41 1011.17 1011.94 1012.72 1013.49 1014.24 1014.97 1015.65 1016.28 1016.86 1017.39
1009.91 1009.53 1009.26 1009.07 1008.96 1008.89 1008.86 1008.85 1008.85 1008.87 1008.89 1008.91 1008.92 1008.90 1008.87 1008.79 1008.67 1008.50 1008.28 1008.03 1007.76 1007.48 1007.23 1007.04 1006.91 1006.86 1006.92 1007.09 1007.37 1007.76 1008.24 1008.80 1009.44 1010.14 1010.89 1011.66 1012.46 1013.25 1014.03 1014.78 1015.49 1016.15 1016.75 1017.28
1008.86 1008.55 1008.35 1008.24 1008.21 1008.23 1008.26 1008.31 1008.35 1008.38 1008.41 1008.42 1008.43 1008.43 1008.41 1008.36 1008.29 1008.19 1008.05 1007.87 1007.68 1007.47 1007.27 1007.10 1006.97 1006.91 1006.93 1007.05 1007.26 1007.58 1008.00 1008.52 1009.12 1009.79 1010.52 1011.31 1012.11 1012.92 1013.73 1014.51 1015.24 1015.92 1016.54 1017.10
1007.90 1007.64 1007.51 1007.47 1007.49 1007.54 1007.60 1007.66 1007.70 1007.73 1007.74 1007.75 1007.75 1007.75 1007.75 1007.75 1007.73 1007.69 1007.63 1007.54 1007.42 1007.28 1007.13 1006.98 1006.87 1006.79 1006.78 1006.86 1007.02 1007.29 1007.66 1008.13 1008.70 1009.35 1010.08 1010.85 1011.66 1012.49 1013.31 1014.10 1014.86 1015.56 1016.20 1016.77
1007.06 1006.86 1006.77 1006.76 1006.79 1006.84 1006.89 1006.92 1006.92 1006.91 1006.89 1006.87 1006.86 1006.87 1006.89 1006.93 1006.98 1007.01 1007.03 1007.01 1006.97 1006.89 1006.79 1006.68 1006.58 1006.51 1006.48 1006.52 1006.66 1006.89 1007.22 1007.66 1008.20 1008.83 1009.53 1010.30 1011.10 1011.92 1012.75 1013.55 1014.32 1015.03 1015.69 1016.28
1006.32 1006.17 1006.10 1006.09 1006.10 1006.11 1006.10 1006.06 1006.00 1005.92 1005.85 1005.79 1005.77 1005.78 1005.83 1005.92 1006.03 1006.14 1006.23 1006.30 1006.33 1006.32 1006.28 1006.21 1006.13 1006.07 1006.04 1006.08 1006.19 1006.40 1006.70 1007.11 1007.62 1008.23 1008.91 1009.65 1010.44 1011.24 1012.05 1012.85 1013.61 1014.34 1015.00 1015.61
1005.64 1005.51 1005.43 1005.39 1005.34 1005.28 1005.17 1005.04 1004.89 1004.74 1004.60 1004.51 1004.47 1004.49 1004.58 1004.72 1004.89 1005.08 1005.26 1005.42 1005.53 1005.59 1005.61 1005.59 1005.55 1005.51 1005.50 1005.53 1005.64 1005.84 1006.13 1006.52 1007.00 1007.58 1008.23 1008.94 1009.69 1010.47 1011.25 1012.03 1012.78 1013.50 1014.18 1014.80
1004.93 1004.79 1004.68 1004.58 1004.45 1004.28 1004.08 1003.84 1003.59 1003.35 1003.16 1003.03 1002.98 1003.02 1003.15 1003.34 1003.59 1003.87 1004.14 1004.38 1004.58 1004.72 1004.80 1004.84 1004.85 1004.85 1004.86 1004.92 1005.04 1005.23 1005.52 1005.89 1006.36 1006.90 1007.52 1008.20 1008.91 1009.65 1010.40 1011.14 1011.88 1012.59 1013.27 1013.91
1004.10 1003.93 1003.77 1003.59 1003.36 1003.09 1002.77 1002.43 1002.09 1001.79 1001.54 1001.39 1001.35 1001.41 1001.59 1001.85 1002.18 1002.53 1002.89 1003.22 1003.51 1003.73 1003.89 1003.99 1004.06 1004.11 1004.17 1004.25 1004.40 1004.60 1004.89 1005.26 1005.71 1006.24 1006.82 1007.46 1008.13 1008.83 1009.54 1010.25 1010.96 1011.66 1012.34 1012.99
1003.08 1002.87 1002.65 1002.39 1002.07 1001.70 1001.29 1000.86 1000.45 1000.10 999.83 999.67 999.64 999.75 999.98 1000.31 1000.71 1001.14 1001.58 1002.00 1002.36 1002.66 1002.90 1003.08 1003.21 1003.32 1003.43 1003.56 1003.73 1003.97 1004.27 1004.64 1005.08 1005.59 1006.15 1006.75 1007.38 1008.04 1008.72 1009.40 1010.08 1010.76 1011.44 1012.11
1001.87 1001.62 1001.34 1001.01 1000.61 1000.17 999.69 999.20 998.76 998.38 998.10 997.96 997.97 998.12 998.40 998.79 999.25 999.76 1000.28 1000.76 1001.20 1001.57 1001.88 1002.12 1002.32 1002.49 1002.66 1002.84 1003.06 1003.33 1003.65 1004.04 1004.48 1004.97 1005.51 1006.08 1006.68 1007.31 1007.95 1008.60 1009.27 1009.94 1010.62 1011.30
1000.51 1000.22 999.90 999.52 999.07 998.58 998.07 997.56 997.11 996.74 996.48 996.37 996.41 996.61 996.94 997.38 997.90 998.46 999.02 999.56 1000.06 1000.49 1000.85 1001.16 1001.42 1001.66 1001.88 1002.12 1002.39 1002.69 1003.04 1003.44 1003.88 1004.37 1004.89 1005.44 1006.02 1006.62 1007.23 1007.87 1008.52 1009.19 1009.87 1010.57
999.05 998.75 998.40 998.00 997.54 997.04 996.53 996.04 995.60 995.26 995.05 994.97 995.06 995.30 995.67 996.14 996.69 997.28 997.88 998.45 998.98 999.45 999.86 1000.22 1000.54 1000.83 1001.12 1001.40 1001.71 1002.05 1002.43 1002.84 1003.29 1003.77 1004.28 1004.81 1005.37 1005.95 1006.55 1007.17 1007.82 1008.49 1009.19 1009.91
997.60 997.30 996.95 996.55 996.10 995.62 995.14 994.68 994.29 994.00 993.83 993.80 993.93 994.20 994.59 995.08 995.64 996.23 996.84 997.43 997.97 998.47 998.92 999.32 999.68 1000.02 1000.36 1000.69 1001.04 1001.41 1001.81 1002.23 1002.68 1003.16 1003.66 1004.18 1004.72 1005.29 1005.88 1006.50 1007.15 1007.84 1008.55 1009.30
996.24 995.94 995.60 995.22 994.79 994.35 993.90 993.50 993.16 992.92 992.80 992.81 992.97 993.25 993.65 994.14 994.70 995.28 995.88 996.47 997.02 997.53 998.01 998.44 998.84 999.23 999.60 999.98 1000.36 1000.76 1001.18 1001.61 1002.06 1002.53 1003.02 1003.52 1004.05 1004.61 1005.20 1005.83 1006.49 1007.20 1007.95 1008.73
995.01 994.71 994.37 994.00 993.59 993.18 992.78 992.42 992.13 991.93 991.85 991.89 992.06 992.36 992.75 993.23 993.77 994.34 994.93 995.51 996.07 996.60 997.10 997.57 998.01 998.44 998.85 999.27 999.68 1000.11 1000.53 1000.97 1001.42 1001.88 1002.36 1002.86 1003.38 1003.94 1004.53 1005.17 1005.86 1006.59 1007.38 1008.20
Thickness
5754 5762 5765 5764 5765 5763 5759 5754 5748 5755 5758 5771 5777 5780 5783 5785 5786 5786 5785 5785 5784 5782 5781 5780 5778 5776 5774 5772 5769 5766 5763 5760 5758 5756 5753 5750 5748 5745 5743 5741 5739 5737 5735 5733
5748 5756 5757 5757 5762 5763 5760 5758 5756 5758 5760 5774 5776 5778 5778 5779 5780 5779 5779 5780 5780 5779 5777 5775 5774 5772 5770 5768 5765 5762 5758 5755 5753 5751 5749 5746 5744 5741 5738 5736 5734 5732 5730 5728
5727 5741 5746 5738 5752 5756 5755 5757 5757 5752 5761 5768 5768 5770 5772 5773 5774 5774 5775 5775 5774 5773 5772 5771 5771 5769 5767 5765 5762 5758 5754 5751 5748 5746 5744 5741 5740 5737 5734 5731 5729 5727 5725 5723
5715 5726 5716 5738 5760 5760 5754 5754 5757 5759 5763 5764 5766 5768 5770 5772 5770 5770 5771 5770 5769 5768 5768 5767 5767 5765 5763 5760 5756 5753 5750 5747 5744 5741 5739 5737 5734 5732 5729 5727 5724 5722 5720 5719
5701 5704 5714 5735 5750 5751 5746 5744 5754 5754 5758 5759 5761 5762 5762 5767 5768 5767 5767 5766 5766 5766 5764 5763 5761 5760 5757 5754 5750 5748 5746 5743 5740 5737 5734 5732 5729 5727 5725 5722 5720 5718 5716 5713
5696 5700 5700 5726 5748 5755 5747 5733 5751 5751 5750 5751 5752 5742 5748 5759 5760 5761 5761 5760 5760 5759 5757 5755 5755 5753 5749 5746 5743 5741 5740 5738 5736 5733 5730 5727 5725 5723 5720 5718 5715 5713 5710 5708
5692 5694 5705 5731 5742 5746 5724 5729 5748 5747 5746 5745 5742 5742 5747 5752 5752 5753 5754 5754 5753 5752 5750 5748 5748 5746 5742 5739 5737 5737 5735 5733 5730 5727 5725 5723 5720 5718 5715 5712 5709 5706 5704 5702
5683 5687 5698 5729 5731 5726 5728 5739 5741 5740 5740 5738 5738 5740 5742 5743 5744 5744 5745 5745 5744 5742 5742 5742 5741 5738 5734 5732 5733 5732 5729 5726 5724 5722 5720 5719 5714 5712 5709 5706 5703 5700 5697 5695
5690 5695 5710 5718 5722 5728 5730 5730 5732 5732 5733 5733 5731 5731 5733 5734 5734 5734 5735 5735 5735 5734 5733 5733 5732 5730 5727 5727 5726 5724 5721 5719 5717 5716 5714 5712 5709 5706 5703 5700 5697 5694 5691 5688
5686 5697 5706 5712 5717 5721 5723 5724 5726 5726 5726 5726 5724 5724 5724 5724 5724 5724 5725 5725 5725 5724 5722 5722 5722 5722 5721 5720 5718 5716 5713 5711 5710 5708 5706 5705 5702 5700 5697 5694 5691 5688 5685 5682
5679 5690 5698 5704 5708 5711 5714 5716 5717 5717 5717 5717 5716 5715 5715 5714 5714 5715 5715 5715 5714 5713 5714 5714 5714 5714 5714 5712 5710 5707 5705 5703 5701 5700 5698 5696 5695 5693 5691 5688 5685 5681 5678 5675
5676 5686 5686 5692 5701 5704 5703 5704 5706 5706 5706 5707 5707 5706 5707 5706 5706 5706 5706 5706 5704 5703 5704 5705 5704 5705 5705 5704 5702 5699 5697 5695 5693 5691 5689 5688 5685 5683 5681 5679 5677 5674 5671 5667
5682 5687 5687 5691 5694 5696 5695 5696 5697 5697 5697 5697 5698 5698 5698 5698 5698 5697 5697 5697 5696 5695 5695 5696 5696 5696 5696 5695 5694 5692 5689 5687 5685 5683 5681 5679 5677 5675 5672 5669 5667 5665 5662 5659
5678 5680 5680 5683 5684 5687 5687 5687 5688 5688 5688 5688 5688 5688 5688 5688 5688 5688 5688 5689 5688 5686 5685 5686 5686 5686 5687 5686 5685 5683 5681 5680 5678 5676 5674 5670 5668 5666 5664 5661 5659 5656 5653 5650
5672 5673 5673 5675 5677 5678 5678 5678 5677 5676 5677 5677 5678 5678 5678 5677 5678 5678 5678 5678 5677 5676 5676 5676 5676 5676 5677 5677 5676 5674 5673 5672 5670 5669 5666 5662 5660 5658 5655 5653 5650 5648 5645 5642
5663 5665 5665 5665 5665 5667 5668 5668 5666 5666 5667 5668 5668 5668 5668 5668 5668 5667 5667 5668 5667 5666 5666 5667 5666 5667 5668 5668 5666 5665 5664 5664 5662 5660 5657 5655 5652 5649 5647 5644 5642 5639 5637 5635
5653 5653 5653 5654 5655 5656 5657 5658 5658 5659 5659 5660 5659 5659 5658 5658 5657 5657 5658 5659 5658 5659 5659 5658 5658 5658 5659 5659 5658 5657 5656 5655 5654 5652 5649 5648 5645 5642 5639 5636 5634 5632 5630 5628
5649 5649 5649 5649 5648 5648 5649 5651 5652 5652 5651 5652 5652 5650 5649 5648 5648 5648 5650 5650 5650 5650 5650 5651 5650 5650 5651 5651 5650 5649 5648 5647 5645 5643 5641 5639 5637 5634 5632 5630 5628 5625 5622 5619
5642 5642 5642 5642 5642 5642 5642 5642 5643 5644 5644 5643 5643 5641 5641 5641 5640 5641 5641 5640 5640 5640 5642 5643 5643 5643 5643 5643 5643 5642 5640 5638 5637 5636 5634 5632 5630 5628 5625 5623 5621 5619 5616 5613
5633 5633 5634 5634 5635 5635 5634 5635 5636 5636 5636 5636 5634 5633 5632 5632 5633 5633 5632 5631 5632 5634 5635 5635 5635 5635 5635 5635 5636 5635 5634 5632 5630 5629 5626 5624 5623 5621 5619 5617 5615 5612 5609 5607
5622 5624 5625 5625 5626 5627 5628 5628 5628 5628 5628 5628 5626 5626 5626 5625 5625 5625 5624 5624 5627 5627 5627 5627 5627 5627 5627 5627 5628 5627 5626 5624 5623 5621 5619 5617 5616 5614 5612 5610 5608 5605 5603 5600
5614 5615 5616 5617 5618 5619 5621 5622 5622 5622 5622 5621 5620 5620 5618 5618 5618 5617 5618 5619 5621 5620 5619 5619 5619 5619 5619 5619 5619 5619 5618 5617 5616 5614 5612 5610 5608 5606 5605 5603 5601 5598 5596 5593
5606 5608 5609 5610 5612 5613 5614 5615 5616 5616 5616 5615 5614 5613 5613 5612 5611 5611 5611 5613 5614 5613 5612 5612 5611 5611 5612 5611 5611 5611 5610 5609 5608 5606 5605 5604 5602 5600 5597 5595 5593 5591 5588 5586
5600 5602 5604 5605 5606 5607 5608 5610 5611 5611 5610 5609 5608 5608 5607 5606 5606 5606 5606 5606 5606 5606 5605 5604 5604 5605 5604 5604 5603 5602 5602 5601 5600 5599 5598 5597 5595 5592 5590 5588 5585 5583 5580 5578
5594 5596 5597 5599 5600 5601 5602 5603 5603 5604 5603 5603 5603 5602 5602 5602 5601 5601 5601 5601 5600 5599 5599 5599 5598 5598 5598 5597 5596 5595 5594 5594 5593 5592 5591 5590 5588 5586 5584 5581 5578 5575 5574 5572
5589 5590 5591 5593 5595 5596 5596 5596 5596 5597 5597 5596 5596 5596 5596 5596 5596 5595 5595 5595 5594 5593 5593 5592 5592 5592 5591 5590 5589 5588 5587 5587 5586 5585 5584 5583 5581 5580 5577 5574 5572 5570 5568 5566
5585 5586 5587 5588 5590 5590 5590 5591 5591 5591 5591 5591 5590 5590 5590 5590 5590 5590 5590 5589 5589 5588 5587 5587 5586 5585 5584 5583 5583 5582 5581 5579 5579 5578 5577 5576 5575 5574 5572 5570 5567 5565 5562 5560